User: anonymous   Login
Location: The Top Of The Sky Mini Observatory
(41.4300°N, 81.2300°W)
Time: 01:49:12
(UTC-04:00)
Language:

Iridium 86 - Orbit

View from above orbital plane
View from above orbital plane
View from above satellite
View from above satellite

Ground track
Ground track

The orbit data is extracted from the following two-line orbital elements,

1 25528U 98066B   18112.39708144  .00000173  00000-0  54689-4 0  9997
2 25528  86.4000 220.4876 0002946  82.5764 277.5767 14.34217884 23686
Epoch (UTC): 22 April 2018 09:31:47
Eccentricity: 0.0002946
inclination: 86.4000°
perigee height: 775 km
apogee height: 780 km
right ascension of ascending node: 220.4876°
argument of perigee: 82.5764°
revolutions per day: 14.34217884
mean anomaly at epoch: 277.5767°
orbit number at epoch: 2368

The dashed part of the orbit path shows where the satellite is in the earth's shadow,  

DLR